Time,TemperatureF,DewpointF,PressureIn,WindDirection,WindDirectionDegrees,WindSpeedMPH,WindSpeedGustMPH,Humidity,HourlyPrecipIn,Conditions,Clouds,dailyrainin,SoftwareType,DateUTC
2013-01-23 00:04:00,-0.6,-5.5,30.38,West,261,3.0,3.0,79,0.00,,---,0.00,VWS V14.01,2013-01-23 06:04:00,
2013-01-23 00:09:00,-0.2,-5.2,30.37,West,261,4.0,4.0,79,0.00,,---,0.00,VWS V14.01,2013-01-23 06:09:00,
2013-01-23 00:15:00,-0.2,-5.2,30.36,West,261,3.0,4.0,79,0.00,,---,0.00,VWS V14.01,2013-01-23 06:15:00,
2013-01-23 00:20:00,-0.1,-5.1,30.37,West,261,0.0,3.0,79,0.00,,---,0.00,VWS V14.01,2013-01-23 06:20:00,
2013-01-23 00:25:00,-0.1,-4.9,30.37,West,261,1.0,3.0,79,0.00,,---,0.00,VWS V14.01,2013-01-23 06:25:00,
2013-01-23 00:30:00,0.2,-4.8,30.37,West,261,3.0,4.0,79,0.00,,---,0.00,VWS V14.01,2013-01-23 06:30:00,
2013-01-23 00:35:00,0.3,-4.7,30.37,West,261,3.0,4.0,79,0.00,,---,0.00,VWS V14.01,2013-01-23 06:35:00,
2013-01-23 00:40:00,0.1,-4.8,30.37,West,261,5.0,5.0,79,0.00,,---,0.00,VWS V14.01,2013-01-23 06:40:00,
2013-01-23 00:45:00,0.3,-4.7,30.36,West,260,3.0,5.0,79,0.00,,---,0.00,VWS V14.01,2013-01-23 06:45:00,
2013-01-23 00:50:00,0.5,-4.5,30.36,West,259,4.0,5.0,79,0.00,,---,0.00,VWS V14.01,2013-01-23 06:50:00,
2013-01-23 00:55:00,0.6,-4.4,30.36,West,259,3.0,5.0,79,0.00,,---,0.00,VWS V14.01,2013-01-23 06:55:00,
2013-01-23 01:00:00,0.5,-4.7,30.37,West,259,3.0,5.0,78,0.00,,---,0.00,VWS V14.01,2013-01-23 07:00:00,
2013-01-23 01:05:00,0.2,-5.0,30.37,West,259,3.0,4.0,78,0.00,,---,0.00,VWS V14.01,2013-01-23 07:05:00,
2013-01-23 01:10:00,0.1,-5.1,30.36,West,259,2.0,4.0,78,0.00,,---,0.00,VWS V14.01,2013-01-23 07:10:00,
2013-01-23 01:15:00,0.2,-5.0,30.36,West,259,3.0,4.0,78,0.00,,---,0.00,VWS V14.01,2013-01-23 07:15:00,
2013-01-23 01:20:00,0.4,-4.8,30.36,West,259,2.0,4.0,78,0.00,,---,0.00,VWS V14.01,2013-01-23 07:20:00,
2013-01-23 01:25:00,0.2,-5.0,30.36,West,259,2.0,4.0,78,0.00,,---,0.00,VWS V14.01,2013-01-23 07:25:00,
2013-01-23 01:30:00,0.1,-4.9,30.36,West,259,3.0,4.0,79,0.00,,---,0.00,VWS V14.01,2013-01-23 07:30:00,
2013-01-23 01:35:00,0.2,-4.8,30.36,West,259,4.0,4.0,79,0.00,,---,0.00,VWS V14.01,2013-01-23 07:35:00,
2013-01-23 01:40:00,0.5,-4.2,30.36,West,259,3.0,5.0,80,0.00,,---,0.00,VWS V14.01,2013-01-23 07:40:00,
2013-01-23 01:45:00,0.4,-4.3,30.36,West,259,3.0,4.0,80,0.00,,---,0.00,VWS V14.01,2013-01-23 07:45:00,
2013-01-23 01:50:00,0.5,-4.2,30.36,WSW,257,3.0,5.0,80,0.00,,---,0.00,VWS V14.01,2013-01-23 07:50:00,
2013-01-23 01:56:00,0.9,-3.8,30.36,WSW,257,3.0,5.0,80,0.00,,---,0.00,VWS V14.01,2013-01-23 07:56:00,
2013-01-23 02:01:00,1.3,-3.4,30.36,SW,219,4.0,5.0,80,0.00,,---,0.00,VWS V14.01,2013-01-23 08:01:00,
2013-01-23 02:06:00,1.4,-3.3,30.36,SW,219,4.0,6.0,80,0.00,,---,0.00,VWS V14.01,2013-01-23 08:06:00,
2013-01-23 02:11:00,1.4,-3.3,30.36,SW,219,4.0,6.0,80,0.00,,---,0.00,VWS V14.01,2013-01-23 08:11:00,
2013-01-23 02:16:00,1.4,-3.3,30.36,SW,219,4.0,4.0,80,0.00,,---,0.00,VWS V14.01,2013-01-23 08:16:00,
2013-01-23 02:21:00,1.4,-3.3,30.36,SW,219,4.0,4.0,80,0.00,,---,0.00,VWS V14.01,2013-01-23 08:21:00,
2013-01-23 02:26:00,1.4,-3.3,30.36,SW,219,4.0,4.0,80,0.00,,---,0.00,VWS V14.01,2013-01-23 08:26:00,
2013-01-23 02:31:00,2.5,-2.5,30.35,SW,217,5.0,5.0,79,0.00,,---,0.00,VWS V14.01,2013-01-23 08:31:00,
2013-01-23 02:36:00,2.6,-2.4,30.35,SW,217,4.0,5.0,79,0.00,,---,0.00,VWS V14.01,2013-01-23 08:36:00,
2013-01-23 02:41:00,2.7,-2.3,30.35,SW,217,4.0,6.0,79,0.00,,---,0.00,VWS V14.01,2013-01-23 08:41:00,
2013-01-23 02:47:00,2.9,-2.1,30.35,SW,217,5.0,5.0,79,0.00,,---,0.00,VWS V14.01,2013-01-23 08:47:00,
2013-01-23 02:52:00,3.0,-2.0,30.35,SW,216,4.0,6.0,79,0.00,,---,0.00,VWS V14.01,2013-01-23 08:52:00,
2013-01-23 02:57:00,3.0,-2.3,30.34,SW,216,6.0,7.0,78,0.00,,---,0.00,VWS V14.01,2013-01-23 08:57:00,
2013-01-23 03:02:00,3.1,-2.2,30.34,SW,216,5.0,6.0,78,0.00,,---,0.00,VWS V14.01,2013-01-23 09:02:00,
2013-01-23 03:07:00,3.2,-2.1,30.34,SW,216,5.0,6.0,78,0.00,,---,0.00,VWS V14.01,2013-01-23 09:07:00,
2013-01-23 03:12:00,3.2,-1.8,30.34,SW,216,6.0,7.0,79,0.00,,---,0.00,VWS V14.01,2013-01-23 09:12:00,
2013-01-23 03:17:00,3.4,-1.9,30.34,SSW,207,5.0,6.0,78,0.00,,---,0.00,VWS V14.01,2013-01-23 09:17:00,
2013-01-23 03:22:00,3.5,-1.8,30.34,SSW,207,4.0,7.0,78,0.00,,---,0.00,VWS V14.01,2013-01-23 09:22:00,
2013-01-23 03:27:00,3.6,-1.7,30.34,SSW,207,3.0,7.0,78,0.00,,---,0.00,VWS V14.01,2013-01-23 09:27:00,
2013-01-23 03:32:00,3.6,-1.7,30.34,SSW,207,3.0,6.0,78,0.00,,---,0.00,VWS V14.01,2013-01-23 09:32:00,
2013-01-23 03:37:00,3.7,-1.6,30.33,SSW,207,4.0,6.0,78,0.00,,---,0.00,VWS V14.01,2013-01-23 09:37:00,
2013-01-23 03:42:00,3.8,-1.2,30.33,SSW,207,4.0,6.0,79,0.00,,---,0.00,VWS V14.01,2013-01-23 09:42:00,
2013-01-23 03:47:00,3.9,-1.1,30.33,SSW,207,4.0,5.0,79,0.00,,---,0.00,VWS V14.01,2013-01-23 09:47:00,
2013-01-23 03:52:00,4.0,-1.0,30.33,SSW,207,6.0,6.0,79,0.00,,---,0.00,VWS V14.01,2013-01-23 09:52:00,
2013-01-23 03:58:00,4.1,-0.9,30.33,SSW,207,5.0,6.0,79,0.00,,---,0.00,VWS V14.01,2013-01-23 09:58:00,
2013-01-23 04:02:00,4.1,-0.9,30.33,SSW,207,5.0,5.0,79,0.00,,---,0.00,VWS V14.01,2013-01-23 10:02:00,
2013-01-23 04:08:00,4.1,-0.9,30.33,SSW,207,5.0,5.0,79,0.00,,---,0.00,VWS V14.01,2013-01-23 10:08:00,
2013-01-23 04:13:00,4.1,-0.9,30.33,SSW,207,5.0,5.0,79,0.00,,---,0.00,VWS V14.01,2013-01-23 10:13:00,
2013-01-23 04:18:00,4.1,-0.9,30.32,SSW,207,5.0,5.0,79,0.00,,---,0.00,VWS V14.01,2013-01-23 10:18:00,
2013-01-23 04:23:00,4.1,-0.9,30.32,SSW,207,5.0,5.0,79,0.00,,---,0.00,VWS V14.01,2013-01-23 10:23:00,
2013-01-23 04:28:00,4.1,-0.9,30.32,SSW,207,5.0,5.0,79,0.00,,---,0.00,VWS V14.01,2013-01-23 10:28:00,
2013-01-23 04:33:00,4.1,-0.9,30.31,SSW,207,5.0,5.0,79,0.00,,---,0.00,VWS V14.01,2013-01-23 10:33:00,
2013-01-23 04:38:00,4.1,-0.9,30.31,SSW,207,5.0,5.0,79,0.00,,---,0.00,VWS V14.01,2013-01-23 10:38:00,
2013-01-23 04:43:00,5.7,0.3,30.31,SW,217,5.0,8.0,78,0.00,,---,0.00,VWS V14.01,2013-01-23 10:43:00,
2013-01-23 04:48:00,5.9,0.5,30.31,SW,219,5.0,9.0,78,0.00,,---,0.00,VWS V14.01,2013-01-23 10:48:00,
2013-01-23 04:53:00,6.0,0.3,30.31,SW,219,7.0,9.0,77,0.00,,---,0.00,VWS V14.01,2013-01-23 10:53:00,
2013-01-23 04:58:00,6.0,0.3,30.30,SW,222,6.0,9.0,77,0.00,,---,0.00,VWS V14.01,2013-01-23 10:58:00,
2013-01-23 05:03:00,6.1,0.4,30.30,SW,222,4.0,9.0,77,0.00,,---,0.00,VWS V14.01,2013-01-23 11:03:00,
2013-01-23 05:08:00,6.1,0.2,30.31,SW,222,5.0,9.0,76,0.00,,---,0.00,VWS V14.01,2013-01-23 11:08:00,
2013-01-23 05:13:00,6.2,0.3,30.31,SW,223,6.0,9.0,76,0.00,,---,0.00,VWS V14.01,2013-01-23 11:13:00,
2013-01-23 05:19:00,6.3,0.4,30.31,SW,222,5.0,7.0,76,0.00,,---,0.00,VWS V14.01,2013-01-23 11:19:00,
2013-01-23 05:24:00,6.3,0.4,30.31,SW,222,6.0,7.0,76,0.00,,---,0.00,VWS V14.01,2013-01-23 11:24:00,
2013-01-23 05:29:00,6.3,0.4,30.30,SW,222,6.0,8.0,76,0.00,,---,0.00,VWS V14.01,2013-01-23 11:29:00,
2013-01-23 05:34:00,6.4,0.5,30.30,SW,222,5.0,7.0,76,0.00,,---,0.00,VWS V14.01,2013-01-23 11:34:00,
2013-01-23 05:39:00,6.5,0.6,30.30,SW,222,5.0,7.0,76,0.00,,---,0.00,VWS V14.01,2013-01-23 11:39:00,
2013-01-23 05:44:00,6.6,0.7,30.30,SW,222,8.0,9.0,76,0.00,,---,0.00,VWS V14.01,2013-01-23 11:44:00,
2013-01-23 05:49:00,6.7,0.8,30.30,SW,222,6.0,8.0,76,0.00,,---,0.00,VWS V14.01,2013-01-23 11:49:00,
2013-01-23 05:54:00,6.7,0.8,30.30,SW,222,5.0,8.0,76,0.00,,---,0.00,VWS V14.01,2013-01-23 11:54:00,
2013-01-23 05:59:00,6.7,0.8,30.30,SW,222,5.0,8.0,76,0.00,,---,0.00,VWS V14.01,2013-01-23 11:59:00,
2013-01-23 06:04:00,6.8,0.9,30.30,SW,222,5.0,6.0,76,0.00,,---,0.00,VWS V14.01,2013-01-23 12:04:00,
2013-01-23 06:09:00,6.8,0.9,30.30,SW,220,5.0,7.0,76,0.00,,---,0.00,VWS V14.01,2013-01-23 12:09:00,
2013-01-23 06:14:00,6.9,1.2,30.30,SW,219,6.0,7.0,77,0.00,,---,0.00,VWS V14.01,2013-01-23 12:14:00,
2013-01-23 06:19:00,7.0,1.3,30.29,SW,219,6.0,7.0,77,0.00,,---,0.00,VWS V14.01,2013-01-23 12:19:00,
2013-01-23 06:24:00,7.1,1.1,30.29,SSW,210,5.0,8.0,76,0.00,,---,0.00,VWS V14.01,2013-01-23 12:24:00,
2013-01-23 06:29:00,7.1,1.1,30.29,SSW,210,7.0,8.0,76,0.00,,---,0.00,VWS V14.01,2013-01-23 12:29:00,
2013-01-23 06:34:00,7.2,1.2,30.29,SSW,210,5.0,7.0,76,0.00,,---,0.00,VWS V14.01,2013-01-23 12:34:00,
2013-01-23 06:39:00,7.3,1.3,30.28,SSW,211,6.0,7.0,76,0.00,,---,0.00,VWS V14.01,2013-01-23 12:39:00,
2013-01-23 06:44:00,7.4,1.4,30.28,SSW,209,6.0,8.0,76,0.00,,---,0.00,VWS V14.01,2013-01-23 12:44:00,
2013-01-23 06:49:00,7.4,1.4,30.28,SSW,209,4.0,6.0,76,0.00,,---,0.00,VWS V14.01,2013-01-23 12:49:00,
2013-01-23 06:54:00,7.5,1.5,30.28,SSW,209,5.0,7.0,76,0.00,,---,0.00,VWS V14.01,2013-01-23 12:54:00,
2013-01-23 07:00:00,7.6,1.6,30.28,SSW,209,4.0,7.0,76,0.00,,---,0.00,VWS V14.01,2013-01-23 13:00:00,
2013-01-23 07:05:00,7.7,1.7,30.28,SSW,209,6.0,7.0,76,0.00,,---,0.00,VWS V14.01,2013-01-23 13:05:00,
2013-01-23 07:10:00,7.8,1.8,30.28,SSW,207,5.0,8.0,76,0.00,,---,0.00,VWS V14.01,2013-01-23 13:10:00,
2013-01-23 07:15:00,7.9,1.9,30.27,SSW,209,7.0,8.0,76,0.00,,---,0.00,VWS V14.01,2013-01-23 13:15:00,
2013-01-23 07:20:00,8.0,2.0,30.27,SSW,210,6.0,8.0,76,0.00,,---,0.00,VWS V14.01,2013-01-23 13:20:00,
2013-01-23 07:25:00,8.1,2.1,30.28,SSW,210,6.0,8.0,76,0.00,,---,0.00,VWS V14.01,2013-01-23 13:25:00,
2013-01-23 07:30:00,8.3,2.3,30.27,SW,217,6.0,8.0,76,0.00,,---,0.00,VWS V14.01,2013-01-23 13:30:00,
2013-01-23 07:35:00,8.4,2.4,30.27,SW,215,8.0,8.0,76,0.00,,---,0.00,VWS V14.01,2013-01-23 13:35:00,
2013-01-23 07:40:00,8.6,2.3,30.27,SW,217,6.0,9.0,75,0.00,,---,0.00,VWS V14.01,2013-01-23 13:40:00,
2013-01-23 07:45:00,8.7,2.4,30.27,SW,217,5.0,9.0,75,0.00,,---,0.00,VWS V14.01,2013-01-23 13:45:00,
2013-01-23 07:50:00,8.9,2.6,30.27,SW,226,4.0,9.0,75,0.00,,---,0.00,VWS V14.01,2013-01-23 13:50:00,
2013-01-23 07:55:00,9.0,2.7,30.27,SW,222,6.0,9.0,75,0.00,,---,0.00,VWS V14.01,2013-01-23 13:55:00,
2013-01-23 08:00:00,9.1,2.8,30.28,SW,222,5.0,9.0,75,0.00,,---,0.00,VWS V14.01,2013-01-23 14:00:00,
2013-01-23 08:05:00,9.2,2.9,30.28,SW,217,6.0,9.0,75,0.00,,---,0.00,VWS V14.01,2013-01-23 14:05:00,
2013-01-23 08:10:00,9.4,3.1,30.28,SW,219,6.0,9.0,75,0.00,,---,0.00,VWS V14.01,2013-01-23 14:10:00,
2013-01-23 08:15:00,9.4,2.8,30.27,SW,222,5.0,10.0,74,0.00,,---,0.00,VWS V14.01,2013-01-23 14:15:00,
2013-01-23 08:20:00,9.5,2.9,30.27,SW,223,7.0,8.0,74,0.00,,---,0.00,VWS V14.01,2013-01-23 14:20:00,
2013-01-23 08:25:00,9.6,3.3,30.27,SW,216,5.0,10.0,75,0.00,,---,0.00,VWS V14.01,2013-01-23 14:25:00,
2013-01-23 08:30:00,9.7,3.4,30.27,SW,219,7.0,9.0,75,0.00,,---,0.00,VWS V14.01,2013-01-23 14:30:00,
2013-01-23 08:35:00,9.8,3.5,30.28,SW,219,6.0,9.0,75,0.00,,---,0.00,VWS V14.01,2013-01-23 14:35:00,
2013-01-23 08:40:00,9.9,3.9,30.27,SW,225,9.0,11.0,76,0.00,,---,0.00,VWS V14.01,2013-01-23 14:40:00,
2013-01-23 08:46:00,9.9,3.9,30.27,SW,219,9.0,9.0,76,0.00,,---,0.00,VWS V14.01,2013-01-23 14:46:00,
2013-01-23 08:51:00,10.0,4.2,30.27,WSW,240,6.0,9.0,77,0.00,,---,0.00,VWS V14.01,2013-01-23 14:51:00,
2013-01-23 08:56:00,10.0,4.5,30.27,SW,231,7.0,9.0,78,0.00,,---,0.00,VWS V14.01,2013-01-23 14:56:00,
2013-01-23 09:01:00,10.3,5.1,30.27,SW,218,8.0,8.0,79,0.00,,---,0.00,VWS V14.01,2013-01-23 15:01:00,
2013-01-23 09:06:00,10.2,5.0,30.27,SW,215,6.0,10.0,79,0.00,,---,0.00,VWS V14.01,2013-01-23 15:06:00,
2013-01-23 09:11:00,10.3,5.1,30.27,SW,223,7.0,10.0,79,0.00,,---,0.00,VWS V14.01,2013-01-23 15:11:00,
2013-01-23 09:16:00,10.4,5.5,30.27,WSW,241,7.0,8.0,80,0.00,,---,0.00,VWS V14.01,2013-01-23 15:16:00,
2013-01-23 09:21:00,10.4,5.5,30.27,WSW,238,7.0,9.0,80,0.00,,---,0.00,VWS V14.01,2013-01-23 15:21:00,
2013-01-23 09:26:00,10.5,5.8,30.27,SW,215,6.0,10.0,81,0.00,,---,0.00,VWS V14.01,2013-01-23 15:26:00,
2013-01-23 09:31:00,10.7,6.0,30.27,SW,228,7.0,9.0,81,0.00,,---,0.00,VWS V14.01,2013-01-23 15:31:00,
2013-01-23 09:36:00,10.7,6.0,30.27,SW,221,5.0,10.0,81,0.00,,---,0.00,VWS V14.01,2013-01-23 15:36:00,
2013-01-23 09:41:00,10.7,6.3,30.27,SW,226,9.0,12.0,82,0.00,,---,0.00,VWS V14.01,2013-01-23 15:41:00,
2013-01-23 09:46:00,10.8,6.4,30.27,SSW,211,7.0,10.0,82,0.00,,---,0.00,VWS V14.01,2013-01-23 15:46:00,
2013-01-23 09:52:00,10.9,6.8,30.27,SW,230,6.0,11.0,83,0.00,,---,0.00,VWS V14.01,2013-01-23 15:52:00,
2013-01-23 09:57:00,11.2,7.1,30.27,SSW,205,6.0,11.0,83,0.00,,---,0.00,VWS V14.01,2013-01-23 15:57:00,
2013-01-23 10:02:00,11.4,7.2,30.26,SW,223,5.0,11.0,83,0.00,,---,0.00,VWS V14.01,2013-01-23 16:02:00,
2013-01-23 10:07:00,11.5,7.3,30.26,SW,223,10.0,11.0,83,0.00,,---,0.00,VWS V14.01,2013-01-23 16:07:00,
2013-01-23 10:12:00,11.6,7.4,30.26,SSW,211,8.0,12.0,83,0.00,,---,0.00,VWS V14.01,2013-01-23 16:12:00,
2013-01-23 10:17:00,11.8,7.9,30.26,SW,217,9.0,11.0,84,0.00,,---,0.00,VWS V14.01,2013-01-23 16:17:00,
2013-01-23 10:22:00,11.9,8.0,30.26,SW,219,8.0,13.0,84,0.00,,---,0.00,VWS V14.01,2013-01-23 16:22:00,
2013-01-23 10:27:00,11.9,8.0,30.26,SW,225,10.0,13.0,84,0.00,,---,0.00,VWS V14.01,2013-01-23 16:27:00,
2013-01-23 10:32:00,11.9,8.0,30.26,SW,223,12.0,13.0,84,0.00,,---,0.00,VWS V14.01,2013-01-23 16:32:00,
2013-01-23 10:37:00,12.0,8.1,30.25,SW,224,8.0,13.0,84,0.00,,---,0.00,VWS V14.01,2013-01-23 16:37:00,
2013-01-23 10:42:00,12.2,8.3,30.25,SW,227,9.0,13.0,84,0.00,,---,0.00,VWS V14.01,2013-01-23 16:42:00,
2013-01-23 10:47:00,12.3,8.1,30.25,SW,218,9.0,11.0,83,0.00,,---,0.00,VWS V14.01,2013-01-23 16:47:00,
2013-01-23 10:52:00,12.7,8.8,30.25,SW,221,8.0,11.0,84,0.00,,---,0.00,VWS V14.01,2013-01-23 16:52:00,
2013-01-23 10:57:00,12.8,8.6,30.24,SW,225,8.0,11.0,83,0.00,,---,0.00,VWS V14.01,2013-01-23 16:57:00,
2013-01-23 11:02:00,13.0,9.1,30.24,SW,217,10.0,12.0,84,0.00,,---,0.00,VWS V14.01,2013-01-23 17:02:00,
2013-01-23 11:07:00,13.0,8.8,30.24,SW,218,10.0,12.0,83,0.00,,---,0.00,VWS V14.01,2013-01-23 17:07:00,
2013-01-23 11:12:00,13.0,8.8,30.23,SW,222,11.0,13.0,83,0.00,,---,0.00,VWS V14.01,2013-01-23 17:12:00,
2013-01-23 11:17:00,13.3,9.1,30.23,SW,226,8.0,12.0,83,0.00,,---,0.00,VWS V14.01,2013-01-23 17:17:00,
2013-01-23 11:22:00,13.3,9.1,30.22,SSW,212,7.0,12.0,83,0.00,,---,0.00,VWS V14.01,2013-01-23 17:22:00,
2013-01-23 11:27:00,13.9,10.0,30.22,SW,223,10.0,12.0,84,0.00,,---,0.00,VWS V14.01,2013-01-23 17:27:00,
2013-01-23 11:32:00,13.5,9.3,30.22,WSW,242,10.0,13.0,83,0.00,,---,0.00,VWS V14.01,2013-01-23 17:32:00,
2013-01-23 11:37:00,13.7,9.5,30.21,SW,225,9.0,13.0,83,0.00,,---,0.00,VWS V14.01,2013-01-23 17:37:00,
2013-01-23 11:42:00,13.9,9.7,30.21,SW,223,11.0,15.0,83,0.00,,---,0.00,VWS V14.01,2013-01-23 17:42:00,
2013-01-23 11:47:00,13.9,9.7,30.20,SW,221,10.0,13.0,83,0.00,,---,0.00,VWS V14.01,2013-01-23 17:47:00,
2013-01-23 11:52:00,14.2,10.0,30.20,SSW,202,8.0,13.0,83,0.00,,---,0.00,VWS V14.01,2013-01-23 17:52:00,
2013-01-23 11:57:00,14.4,10.2,30.19,SSW,205,6.0,13.0,83,0.00,,---,0.00,VWS V14.01,2013-01-23 17:57:00,
2013-01-23 12:02:00,14.3,10.1,30.19,SSW,208,7.0,15.0,83,0.00,,---,0.00,VWS V14.01,2013-01-23 18:02:00,
2013-01-23 12:07:00,14.3,10.1,30.19,SW,216,10.0,15.0,83,0.00,,---,0.00,VWS V14.01,2013-01-23 18:07:00,
2013-01-23 12:12:00,14.6,10.7,30.18,SW,232,11.0,15.0,84,0.00,,---,0.00,VWS V14.01,2013-01-23 18:12:00,
2013-01-23 12:17:00,14.5,10.3,30.18,SW,222,12.0,13.0,83,0.00,,---,0.00,VWS V14.01,2013-01-23 18:17:00,
2013-01-23 12:22:00,14.6,10.1,30.18,SW,224,12.0,15.0,82,0.00,,---,0.00,VWS V14.01,2013-01-23 18:22:00,
2013-01-23 12:27:00,14.7,10.5,30.18,SW,232,11.0,15.0,83,0.00,,---,0.00,VWS V14.01,2013-01-23 18:27:00,
2013-01-23 12:33:00,14.8,10.6,30.18,SW,233,10.0,13.0,83,0.00,,---,0.00,VWS V14.01,2013-01-23 18:33:00,
2013-01-23 12:38:00,14.8,10.6,30.17,SW,223,9.0,13.0,83,0.00,,---,0.00,VWS V14.01,2013-01-23 18:38:00,
2013-01-23 12:43:00,14.7,10.2,30.17,SSW,211,11.0,14.0,82,0.00,,---,0.00,VWS V14.01,2013-01-23 18:43:00,
2013-01-23 12:48:00,14.8,10.6,30.17,SW,225,5.0,14.0,83,0.00,,---,0.00,VWS V14.01,2013-01-23 18:48:00,
2013-01-23 12:53:00,14.9,10.9,30.16,SW,234,11.0,14.0,84,0.00,,---,0.00,VWS V14.01,2013-01-23 18:53:00,
2013-01-23 12:58:00,15.0,11.1,30.16,SW,235,8.0,14.0,84,0.00,,---,0.00,VWS V14.01,2013-01-23 18:58:00,
2013-01-23 13:03:00,14.9,10.7,30.16,WSW,239,12.0,15.0,83,0.00,,---,0.00,VWS V14.01,2013-01-23 19:03:00,
2013-01-23 13:08:00,15.3,11.3,30.16,SW,232,7.0,16.0,84,0.00,,---,0.00,VWS V14.01,2013-01-23 19:08:00,
2013-01-23 13:13:00,15.3,11.1,30.16,SW,221,12.0,16.0,83,0.00,,---,0.00,VWS V14.01,2013-01-23 19:13:00,
2013-01-23 13:18:00,15.3,11.1,30.16,WSW,240,8.0,14.0,83,0.00,,---,0.00,VWS V14.01,2013-01-23 19:18:00,
2013-01-23 13:23:00,15.2,11.0,30.15,SW,236,14.0,15.0,83,0.00,,---,0.00,VWS V14.01,2013-01-23 19:23:00,
2013-01-23 13:28:00,15.3,11.1,30.15,WSW,246,8.0,15.0,83,0.00,,---,0.00,VWS V14.01,2013-01-23 19:28:00,
2013-01-23 13:33:00,15.5,11.5,30.14,SW,221,12.0,13.0,84,0.00,,---,0.00,VWS V14.01,2013-01-23 19:33:00,
2013-01-23 13:38:00,15.6,11.4,30.14,WSW,242,12.0,14.0,83,0.00,,---,0.00,VWS V14.01,2013-01-23 19:38:00,
2013-01-23 13:43:00,16.0,11.8,30.14,WSW,245,7.0,16.0,83,0.00,,---,0.00,VWS V14.01,2013-01-23 19:43:00,
2013-01-23 13:49:00,16.0,11.8,30.14,WSW,253,7.0,13.0,83,0.00,,---,0.00,VWS V14.01,2013-01-23 19:49:00,
2013-01-23 13:54:00,16.0,11.8,30.14,West,267,5.0,13.0,83,0.00,,---,0.00,VWS V14.01,2013-01-23 19:54:00,
2013-01-23 13:59:00,15.9,11.4,30.14,SW,235,8.0,13.0,82,0.00,,---,0.00,VWS V14.01,2013-01-23 19:59:00,
2013-01-23 14:04:00,16.2,12.0,30.14,SW,229,10.0,15.0,83,0.00,,---,0.00,VWS V14.01,2013-01-23 20:04:00,
2013-01-23 14:09:00,16.3,12.3,30.14,SW,231,13.0,15.0,84,0.00,,---,0.00,VWS V14.01,2013-01-23 20:09:00,
2013-01-23 14:14:00,16.3,12.1,30.14,WSW,240,10.0,16.0,83,0.00,,---,0.00,VWS V14.01,2013-01-23 20:14:00,
2013-01-23 14:19:00,16.1,12.1,30.14,WSW,243,8.0,11.0,84,0.00,,---,0.00,VWS V14.01,2013-01-23 20:19:00,
2013-01-23 14:24:00,16.3,12.3,30.14,SW,233,8.0,12.0,84,0.00,,---,0.00,VWS V14.01,2013-01-23 20:24:00,
2013-01-23 14:29:00,16.5,12.8,30.14,WSW,252,10.0,12.0,85,0.00,,---,0.00,VWS V14.01,2013-01-23 20:29:00,
2013-01-23 14:34:00,16.1,12.1,30.14,West,266,7.0,10.0,84,0.00,,---,0.00,VWS V14.01,2013-01-23 20:34:00,
2013-01-23 14:39:00,16.0,11.8,30.14,West,266,8.0,12.0,83,0.00,,---,0.00,VWS V14.01,2013-01-23 20:39:00,
2013-01-23 14:44:00,16.1,11.6,30.14,West,261,13.0,13.0,82,0.00,,---,0.00,VWS V14.01,2013-01-23 20:44:00,
2013-01-23 14:49:00,16.0,11.8,30.14,WSW,252,6.0,11.0,83,0.00,,---,0.00,VWS V14.01,2013-01-23 20:49:00,
2013-01-23 14:54:00,16.1,11.9,30.14,WSW,242,10.0,12.0,83,0.00,,---,0.00,VWS V14.01,2013-01-23 20:54:00,
2013-01-23 14:59:00,16.1,12.1,30.14,WSW,246,9.0,12.0,84,0.00,,---,0.00,VWS V14.01,2013-01-23 20:59:00,
2013-01-23 15:04:00,16.1,12.1,30.14,WSW,240,8.0,9.0,84,0.00,,---,0.00,VWS V14.01,2013-01-23 21:04:00,
2013-01-23 15:09:00,16.1,12.4,30.14,WSW,244,7.0,10.0,85,0.00,,---,0.00,VWS V14.01,2013-01-23 21:09:00,
2013-01-23 15:14:00,16.1,12.4,30.14,WSW,250,7.0,11.0,85,0.00,,---,0.00,VWS V14.01,2013-01-23 21:14:00,
2013-01-23 15:19:00,16.0,12.6,30.15,WSW,252,5.0,10.0,86,0.00,,---,0.00,VWS V14.01,2013-01-23 21:19:00,
2013-01-23 15:24:00,15.9,12.5,30.15,West,261,4.0,10.0,86,0.00,,---,0.00,VWS V14.01,2013-01-23 21:24:00,
2013-01-23 15:29:00,16.0,12.8,30.15,West,265,5.0,10.0,87,0.00,,---,0.00,VWS V14.01,2013-01-23 21:29:00,
2013-01-23 15:34:00,16.2,13.0,30.15,West,268,5.0,10.0,87,0.00,,---,0.00,VWS V14.01,2013-01-23 21:34:00,
2013-01-23 15:39:00,16.1,12.9,30.15,WSW,257,8.0,10.0,87,0.00,,---,0.00,VWS V14.01,2013-01-23 21:39:00,
2013-01-23 15:44:00,16.0,12.6,30.15,West,259,7.0,10.0,86,0.00,,---,0.00,VWS V14.01,2013-01-23 21:44:00,
2013-01-23 15:49:00,15.9,12.7,30.15,West,262,6.0,9.0,87,0.00,,---,0.00,VWS V14.01,2013-01-23 21:49:00,
2013-01-23 15:54:00,16.0,12.8,30.15,West,263,5.0,9.0,87,0.00,,---,0.00,VWS V14.01,2013-01-23 21:54:00,
2013-01-23 15:59:00,15.9,12.5,30.15,WSW,251,3.0,9.0,86,0.00,,---,0.00,VWS V14.01,2013-01-23 21:59:00,
2013-01-23 16:04:00,15.7,12.3,30.15,West,261,4.0,10.0,86,0.00,,---,0.00,VWS V14.01,2013-01-23 22:04:00,
2013-01-23 16:09:00,15.7,12.3,30.15,West,259,5.0,10.0,86,0.00,,---,0.00,VWS V14.01,2013-01-23 22:09:00,
2013-01-23 16:14:00,15.8,12.4,30.15,WSW,242,4.0,10.0,86,0.00,,---,0.00,VWS V14.01,2013-01-23 22:14:00,
2013-01-23 16:19:00,15.8,12.4,30.16,West,262,6.0,8.0,86,0.00,,---,0.00,VWS V14.01,2013-01-23 22:19:00,
2013-01-23 16:25:00,15.8,12.4,30.16,West,271,5.0,9.0,86,0.00,,---,0.00,VWS V14.01,2013-01-23 22:25:00,
2013-01-23 16:30:00,15.9,12.5,30.16,West,265,4.0,9.0,86,0.00,,---,0.00,VWS V14.01,2013-01-23 22:30:00,
2013-01-23 16:35:00,15.8,12.6,30.16,West,259,5.0,11.0,87,0.00,,---,0.00,VWS V14.01,2013-01-23 22:35:00,
2013-01-23 16:40:00,15.8,12.6,30.16,WSW,257,3.0,11.0,87,0.00,,---,0.00,VWS V14.01,2013-01-23 22:40:00,
2013-01-23 16:45:00,15.7,12.5,30.17,West,264,3.0,11.0,87,0.00,,---,0.00,VWS V14.01,2013-01-23 22:45:00,
2013-01-23 16:50:00,15.6,12.4,30.17,West,265,0.0,6.0,87,0.00,,---,0.00,VWS V14.01,2013-01-23 22:50:00,
2013-01-23 16:55:00,15.6,12.4,30.17,West,265,2.0,6.0,87,0.00,,---,0.00,VWS V14.01,2013-01-23 22:55:00,
2013-01-23 17:00:00,15.4,12.2,30.17,NNW,327,1.0,7.0,87,0.00,,---,0.00,VWS V14.01,2013-01-23 23:00:00,
2013-01-23 17:05:00,15.3,11.9,30.17,NW,319,6.0,6.0,86,0.00,,---,0.00,VWS V14.01,2013-01-23 23:05:00,
2013-01-23 17:10:00,15.1,11.7,30.17,NNW,340,8.0,9.0,86,0.00,,---,0.00,VWS V14.01,2013-01-23 23:10:00,
2013-01-23 17:15:00,14.9,11.5,30.17,NNW,338,6.0,6.0,86,0.00,,---,0.00,VWS V14.01,2013-01-23 23:15:00,
2013-01-23 17:20:00,14.9,11.5,30.18,NW,315,9.0,11.0,86,0.00,,---,0.00,VWS V14.01,2013-01-23 23:20:00,
2013-01-23 17:25:00,15.0,11.8,30.18,NW,318,8.0,11.0,87,0.00,,---,0.00,VWS V14.01,2013-01-23 23:25:00,
2013-01-23 17:30:00,15.0,12.1,30.19,NW,317,9.0,9.0,88,0.00,,---,0.00,VWS V14.01,2013-01-23 23:30:00,
2013-01-23 17:35:00,14.9,12.0,30.19,NW,317,9.0,9.0,88,0.00,,---,0.00,VWS V14.01,2013-01-23 23:35:00,
2013-01-23 17:40:00,14.9,12.0,30.19,NW,317,9.0,9.0,88,0.00,,---,0.00,VWS V14.01,2013-01-23 23:40:00,
2013-01-23 17:45:00,14.9,12.0,30.20,NW,317,9.0,9.0,88,0.00,,---,0.00,VWS V14.01,2013-01-23 23:45:00,
2013-01-23 17:50:00,14.9,12.0,30.20,NW,317,9.0,9.0,88,0.00,,---,0.00,VWS V14.01,2013-01-23 23:50:00,
2013-01-23 17:55:00,14.9,12.0,30.20,NW,317,9.0,9.0,88,0.00,,---,0.00,VWS V14.01,2013-01-23 23:55:00,
2013-01-23 18:00:00,14.9,12.0,30.21,NW,317,9.0,9.0,88,0.00,,---,0.00,VWS V14.01,2013-01-24 00:00:00,
2013-01-23 18:06:00,14.9,12.0,30.21,NW,317,9.0,9.0,88,0.00,,---,0.00,VWS V14.01,2013-01-24 00:06:00,
2013-01-23 18:11:00,14.9,12.0,30.21,NW,317,9.0,9.0,88,0.00,,---,0.00,VWS V14.01,2013-01-24 00:11:00,
2013-01-23 18:16:00,14.9,12.0,30.22,NW,317,9.0,9.0,88,0.00,,---,0.00,VWS V14.01,2013-01-24 00:16:00,
2013-01-23 18:21:00,14.9,12.0,30.22,NW,317,9.0,9.0,88,0.00,,---,0.00,VWS V14.01,2013-01-24 00:21:00,
2013-01-23 18:26:00,14.9,12.0,30.22,NW,317,9.0,9.0,88,0.00,,---,0.00,VWS V14.01,2013-01-24 00:26:00,
2013-01-23 18:31:00,14.9,12.0,30.23,NW,317,9.0,9.0,88,0.00,,---,0.00,VWS V14.01,2013-01-24 00:31:00,
2013-01-23 18:36:00,13.1,9.2,30.23,NW,317,9.0,12.0,84,0.00,,---,0.00,VWS V14.01,2013-01-24 00:36:00,
2013-01-23 18:41:00,13.0,8.8,30.24,WNW,296,2.0,12.0,83,0.00,,---,0.00,VWS V14.01,2013-01-24 00:41:00,
2013-01-23 18:46:00,12.8,8.6,30.24,NW,315,12.0,14.0,83,0.00,,---,0.00,VWS V14.01,2013-01-24 00:46:00,
2013-01-23 18:51:00,12.5,8.3,30.24,NW,306,12.0,18.0,83,0.00,,---,0.00,VWS V14.01,2013-01-24 00:51:00,
2013-01-23 18:56:00,12.3,8.1,30.25,NW,325,7.0,18.0,83,0.00,,---,0.00,VWS V14.01,2013-01-24 00:56:00,
2013-01-23 19:01:00,12.1,7.9,30.26,NW,314,5.0,10.0,83,0.00,,---,0.00,VWS V14.01,2013-01-24 01:01:00,
2013-01-23 19:06:00,11.8,7.9,30.26,NW,312,12.0,20.0,84,0.00,,---,0.00,VWS V14.01,2013-01-24 01:06:00,
2013-01-23 19:11:00,11.3,7.4,30.27,NW,316,13.0,20.0,84,0.00,,---,0.00,VWS V14.01,2013-01-24 01:11:00,
2013-01-23 19:16:00,10.9,6.8,30.27,NW,312,9.0,10.0,83,0.00,,---,0.00,VWS V14.01,2013-01-24 01:16:00,
2013-01-23 19:21:00,10.7,6.3,30.28,NW,324,10.0,16.0,82,0.00,,---,0.00,VWS V14.01,2013-01-24 01:21:00,
2013-01-23 19:26:00,10.7,6.0,30.28,NNW,340,12.0,16.0,81,0.00,,---,0.00,VWS V14.01,2013-01-24 01:26:00,
2013-01-23 19:31:00,10.5,5.8,30.29,NW,320,13.0,15.0,81,0.00,,---,0.00,VWS V14.01,2013-01-24 01:31:00,
2013-01-23 19:36:00,10.5,5.8,30.30,NW,326,16.0,23.0,81,0.00,,---,0.00,VWS V14.01,2013-01-24 01:36:00,
2013-01-23 19:41:00,10.5,5.8,30.30,NW,326,16.0,23.0,81,0.00,,---,0.00,VWS V14.01,2013-01-24 01:41:00,
2013-01-23 19:47:00,9.9,5.5,30.31,NNW,333,17.0,17.0,82,0.00,,---,0.00,VWS V14.01,2013-01-24 01:47:00,
2013-01-23 19:52:00,9.9,5.5,30.30,NNW,329,11.0,17.0,82,0.00,,---,0.00,VWS V14.01,2013-01-24 01:52:00,
2013-01-23 19:57:00,9.9,5.5,30.31,NNW,329,11.0,17.0,82,0.00,,---,0.00,VWS V14.01,2013-01-24 01:57:00,
2013-01-23 20:02:00,9.9,5.5,30.31,NNW,329,11.0,11.0,82,0.00,,---,0.00,VWS V14.01,2013-01-24 02:02:00,
2013-01-23 20:07:00,9.9,5.5,30.32,NNW,329,11.0,11.0,82,0.00,,---,0.00,VWS V14.01,2013-01-24 02:07:00,
2013-01-23 20:12:00,9.9,5.5,30.32,NNW,329,11.0,11.0,82,0.00,,---,0.00,VWS V14.01,2013-01-24 02:12:00,
2013-01-23 20:17:00,8.9,1.4,30.32,NNW,345,20.0,21.0,71,0.00,,---,0.00,VWS V14.01,2013-01-24 02:17:00,
2013-01-23 20:22:00,8.9,0.8,30.33,NNW,335,13.0,23.0,69,0.00,,---,0.00,VWS V14.01,2013-01-24 02:22:00,
2013-01-23 20:27:00,8.8,0.4,30.33,NNW,340,14.0,23.0,68,0.00,,---,0.00,VWS V14.01,2013-01-24 02:27:00,
2013-01-23 20:32:00,8.7,0.0,30.33,NNW,336,13.0,18.0,67,0.00,,---,0.00,VWS V14.01,2013-01-24 02:32:00,
2013-01-23 20:37:00,8.5,-0.2,30.34,NNW,334,11.0,18.0,67,0.00,,---,0.00,VWS V14.01,2013-01-24 02:37:00,
2013-01-23 20:42:00,8.3,-0.4,30.34,NNW,331,13.0,21.0,67,0.00,,---,0.00,VWS V14.01,2013-01-24 02:42:00,
2013-01-23 20:47:00,8.4,-0.3,30.34,NNW,344,18.0,20.0,67,0.00,,---,0.00,VWS V14.01,2013-01-24 02:47:00,
2013-01-23 20:52:00,8.4,-0.6,30.35,NNW,338,16.0,23.0,66,0.00,,---,0.00,VWS V14.01,2013-01-24 02:52:00,
2013-01-23 20:57:00,8.2,-0.5,30.35,NNW,332,14.0,23.0,67,0.00,,---,0.00,VWS V14.01,2013-01-24 02:57:00,
2013-01-23 21:02:00,8.0,-0.7,30.35,NNW,342,13.0,15.0,67,0.00,,---,0.00,VWS V14.01,2013-01-24 03:02:00,
2013-01-23 21:07:00,7.9,-0.8,30.35,NNW,340,17.0,20.0,67,0.00,,---,0.00,VWS V14.01,2013-01-24 03:07:00,
2013-01-23 21:12:00,8.0,-0.7,30.36,NNW,338,12.0,20.0,67,0.00,,---,0.00,VWS V14.01,2013-01-24 03:12:00,
2013-01-23 21:17:00,7.7,-0.6,30.36,NNW,339,11.0,15.0,68,0.00,,---,0.00,VWS V14.01,2013-01-24 03:17:00,
2013-01-23 21:22:00,7.4,-0.9,30.37,NNW,327,8.0,15.0,68,0.00,,---,0.00,VWS V14.01,2013-01-24 03:22:00,
2013-01-23 21:27:00,7.4,-0.9,30.37,NNW,331,11.0,16.0,68,0.00,,---,0.00,VWS V14.01,2013-01-24 03:27:00,
2013-01-23 21:32:00,7.3,-0.7,30.37,NNW,338,11.0,14.0,69,0.00,,---,0.00,VWS V14.01,2013-01-24 03:32:00,
2013-01-23 21:37:00,7.3,-1.0,30.38,NNW,331,18.0,19.0,68,0.00,,---,0.00,VWS V14.01,2013-01-24 03:37:00,
2013-01-23 21:43:00,7.3,-1.0,30.38,NNW,327,15.0,21.0,68,0.00,,---,0.00,VWS V14.01,2013-01-24 03:43:00,
2013-01-23 21:48:00,7.2,-1.1,30.38,NNW,340,14.0,18.0,68,0.00,,---,0.00,VWS V14.01,2013-01-24 03:48:00,
2013-01-23 21:53:00,7.1,-1.2,30.38,NNW,333,10.0,18.0,68,0.00,,---,0.00,VWS V14.01,2013-01-24 03:53:00,
2013-01-23 21:58:00,6.7,-1.3,30.38,NW,322,9.0,18.0,69,0.00,,---,0.00,VWS V14.01,2013-01-24 03:58:00,
2013-01-23 22:03:00,6.5,-1.2,30.39,NNW,334,12.0,16.0,70,0.00,,---,0.00,VWS V14.01,2013-01-24 04:03:00,
2013-01-23 22:08:00,6.6,-1.4,30.39,NNW,330,17.0,20.0,69,0.00,,---,0.00,VWS V14.01,2013-01-24 04:08:00,
2013-01-23 22:13:00,6.4,-1.6,30.40,NNW,333,8.0,20.0,69,0.00,,---,0.00,VWS V14.01,2013-01-24 04:13:00,
2013-01-23 22:18:00,6.1,-1.6,30.40,NNW,338,7.0,11.0,70,0.00,,---,0.00,VWS V14.01,2013-01-24 04:18:00,
2013-01-23 22:23:00,5.9,-1.5,30.41,NNW,327,8.0,11.0,71,0.00,,---,0.00,VWS V14.01,2013-01-24 04:23:00,
2013-01-23 22:28:00,5.8,-1.6,30.41,NNW,331,8.0,13.0,71,0.00,,---,0.00,VWS V14.01,2013-01-24 04:28:00,
2013-01-23 22:33:00,5.6,-1.8,30.42,NW,315,9.0,13.0,71,0.00,,---,0.00,VWS V14.01,2013-01-24 04:33:00,
2013-01-23 22:38:00,5.6,-1.8,30.42,NW,325,9.0,16.0,71,0.00,,---,0.00,VWS V14.01,2013-01-24 04:38:00,
2013-01-23 22:43:00,5.6,-1.8,30.43,NNW,333,8.0,16.0,71,0.00,,---,0.00,VWS V14.01,2013-01-24 04:43:00,
2013-01-23 22:48:00,5.4,-1.9,30.43,NNW,331,7.0,12.0,71,0.00,,---,0.00,VWS V14.01,2013-01-24 04:48:00,
2013-01-23 22:53:00,5.4,-1.9,30.43,NNW,337,8.0,15.0,71,0.00,,---,0.00,VWS V14.01,2013-01-24 04:53:00,
2013-01-23 22:58:00,5.2,-1.8,30.43,NNW,336,9.0,16.0,72,0.00,,---,0.00,VWS V14.01,2013-01-24 04:58:00,
2013-01-23 23:00:00,5.2,-1.8,30.44,NNW,335,11.0,16.0,72,0.00,,---,0.00,VWS V14.01,2013-01-24 05:00:00,
2013-01-23 23:03:00,5.1,-1.9,30.44,NNW,336,13.0,18.0,72,0.00,,---,0.00,VWS V14.01,2013-01-24 05:03:00,
2013-01-23 23:08:00,5.1,-1.9,30.44,NNW,335,16.0,18.0,72,0.00,,---,0.00,VWS V14.01,2013-01-24 05:08:00,
2013-01-23 23:13:00,5.1,-1.9,30.45,NNW,331,7.0,18.0,72,0.00,,---,0.00,VWS V14.01,2013-01-24 05:13:00,
2013-01-23 23:18:00,4.9,-2.1,30.45,NNW,328,9.0,13.0,72,0.00,,---,0.00,VWS V14.01,2013-01-24 05:18:00,
2013-01-23 23:23:00,4.7,-2.0,30.45,NNW,335,10.0,13.0,73,0.00,,---,0.00,VWS V14.01,2013-01-24 05:23:00,
2013-01-23 23:28:00,4.5,-2.2,30.45,NW,325,5.0,13.0,73,0.00,,---,0.00,VWS V14.01,2013-01-24 05:28:00,
2013-01-23 23:33:00,4.4,-2.3,30.46,NW,322,7.0,14.0,73,0.00,,---,0.00,VWS V14.01,2013-01-24 05:33:00,
2013-01-23 23:38:00,4.5,-2.2,30.46,NNW,329,15.0,19.0,73,0.00,,---,0.00,VWS V14.01,2013-01-24 05:38:00,
2013-01-23 23:43:00,4.4,-2.3,30.47,NNW,328,13.0,19.0,73,0.00,,---,0.00,VWS V14.01,2013-01-24 05:43:00,
2013-01-23 23:48:00,4.3,-2.4,30.47,NNW,329,8.0,15.0,73,0.00,,---,0.00,VWS V14.01,2013-01-24 05:48:00,
2013-01-23 23:53:00,4.2,-2.5,30.48,NNW,328,12.0,15.0,73,0.00,,---,0.00,VWS V14.01,2013-01-24 05:53:00,
2013-01-23 23:58:00,4.1,-2.3,30.48,NW,317,9.0,15.0,74,0.00,,---,0.00,VWS V14.01,2013-01-24 05:58:00,